Wind_Speed
35 34 33 31 30 28 26 24 22 22 24 24 21 21 22 24 26 26 25 24 22 21 19 20 21 22 23 25 26 27 27 27 27 28 29 30 31 31
39 37 36 34 32 30 29 26 24 23 23 24 22 21 22 24 26 25 25 24 23 22 22 22 22 23 24 25 26 26 26 26 27 27 27 29 29 29
43 41 38 36 34 32 30 28 26 24 23 23 22 22 22 23 26 27 26 25 25 24 24 24 24 24 25 25 25 25 25 25 25 25 25 26 27 28
47 44 41 39 36 34 32 30 29 26 24 23 23 23 22 23 25 26 27 26 26 26 25 25 25 25 25 24 24 24 24 25 25 25 25 26 26 26
51 48 45 42 39 36 34 32 30 28 25 24 24 23 22 22 24 26 27 27 27 26 26 26 25 25 25 24 24 24 24 24 24 24 24 24 26 27
54 51 48 45 42 39 36 34 32 30 27 25 24 23 21 20 22 24 25 26 26 26 25 25 25 25 24 24 23 23 23 23 23 23 24 24 25 26
55 52 50 47 45 42 38 36 33 31 28 26 24 22 20 18 19 21 22 23 24 24 24 24 24 24 23 22 22 21 21 22 22 23 23 23 23 23
56 53 51 49 46 44 40 37 35 32 29 26 25 23 20 18 18 18 19 21 21 22 22 23 22 22 21 21 20 20 20 20 20 20 20 19 19 19
58 55 52 49 46 44 42 39 36 33 31 27 25 23 20 19 18 18 18 18 19 19 20 20 20 20 20 21 21 20 19 18 17 17 16 16 16 16
60 57 53 50 48 45 43 40 37 35 32 28 25 22 21 20 19 19 18 18 19 19 19 19 19 20 20 20 20 19 19 18 17 17 16 16 15 14
61 58 55 52 49 45 43 41 38 35 33 29 25 23 21 20 19 19 18 18 18 19 18 19 19 19 20 21 20 19 18 18 17 17 16 15 14 14
56 58 56 53 50 47 43 41 38 36 33 29 26 23 22 21 20 20 18 18 18 18 18 18 19 19 19 20 20 19 18 17 16 16 15 14 14 14
47 53 53 51 49 47 44 41 39 36 34 30 26 24 23 22 21 19 18 18 18 18 17 17 18 19 20 20 19 18 17 16 16 15 15 14 14 14
42 48 51 49 48 46 45 42 39 36 34 30 27 25 24 22 21 20 20 19 19 18 17 17 19 19 20 20 19 18 17 17 16 15 15 14 14 14
38 46 49 49 47 45 45 43 40 36 33 30 27 26 24 22 21 21 20 20 19 19 18 18 19 19 20 19 18 18 18 17 16 15 15 15 15 16
36 47 49 48 47 46 44 43 40 37 32 30 28 26 23 21 21 21 21 20 20 19 19 19 19 19 19 19 18 18 18 17 16 16 16 17 18 20
36 49 50 48 48 46 45 43 40 36 32 30 27 25 22 21 21 21 21 21 20 20 20 20 21 20 19 19 19 18 18 17 18 18 20 21 22 24
36 48 51 49 47 45 44 42 39 35 33 30 28 25 23 22 22 22 22 22 21 21 22 22 22 21 21 20 20 19 19 19 20 21 23 24 26 28
35 45 49 48 47 46 43 40 37 35 32 30 28 25 24 24 23 23 23 23 23 23 23 23 23 22 22 21 20 20 21 22 23 24 25 27 29 31
32 41 47 48 48 45 42 40 37 35 32 29 27 26 25 25 24 24 24 24 24 24 24 24 24 23 23 22 22 22 23 24 25 26 28 29 31 33
28 37 45 46 45 44 41 38 36 34 31 29 27 26 26 25 25 25 25 25 25 25 24 24 24 23 23 22 22 22 23 24 26 28 29 31 32 33
26 34 41 41 42 40 38 36 34 33 30 28 27 27 26 26 26 26 26 26 25 25 24 24 23 23 23 22 22 23 24 26 27 29 30 30 31 31
28 33 37 38 38 37 36 33 32 30 29 28 27 27 26 27 27 26 26 26 25 25 24 24 23 23 23 23 24 25 26 27 28 28 28 29 30 30
Wind_Direction
254 257 260 265 270 274 278 279 282 289 295 296 289 274 260 250 245 241 239 239 238 238 236 234 234 238 243 246 248 249 250 249 249 248 247 247 246 246
254 256 259 262 266 270 273 276 279 284 290 294 292 278 264 251 244 241 237 235 234 236 236 237 241 244 248 250 251 251 251 250 249 247 247 247 246 245
253 255 257 260 263 266 269 271 275 280 285 289 289 280 268 254 244 241 238 236 235 237 238 242 246 250 253 254 253 252 251 250 247 245 247 247 245 244
251 253 255 257 260 263 265 267 270 275 280 283 284 280 271 257 245 240 238 237 235 237 240 245 249 252 254 255 256 253 251 248 247 247 247 247 246 246
249 250 252 254 256 259 261 263 265 270 275 278 279 277 272 259 246 240 236 236 237 240 243 246 250 252 254 255 255 253 250 246 246 247 247 248 247 247
247 248 249 250 252 255 257 258 260 264 270 274 275 272 271 260 246 239 237 236 238 242 245 248 250 251 253 252 251 250 247 245 246 247 248 249 248 248
244 244 246 247 248 250 252 254 256 259 265 269 271 268 266 258 246 239 237 237 239 242 245 248 249 250 250 249 248 246 244 244 245 247 246 247 247 247
240 240 241 243 244 245 246 249 251 254 259 264 266 264 259 250 242 237 236 237 239 242 246 248 248 246 248 247 244 241 240 241 242 242 241 243 243 242
237 237 237 238 240 241 242 245 247 249 254 259 261 258 253 244 239 237 237 237 238 241 244 244 242 244 244 242 240 235 235 235 235 234 234 235 236 234
234 234 233 234 235 238 239 241 244 246 248 253 254 250 246 241 236 235 235 237 236 237 240 242 242 240 240 237 234 234 234 230 230 230 231 232 232 234
231 230 230 231 232 234 236 238 240 242 244 248 248 245 242 237 234 234 235 238 237 239 242 243 242 239 236 231 229 228 226 225 226 228 230 231 232 234
226 226 227 228 229 231 233 235 235 236 238 241 242 241 237 233 232 231 233 237 239 240 241 241 238 235 231 225 222 221 221 222 223 224 225 227 230 233
220 219 219 222 225 227 229 230 230 231 233 236 236 236 234 232 230 232 235 237 240 240 239 239 235 230 225 221 216 215 216 218 220 221 225 228 232 236
215 212 209 213 219 222 224 225 226 227 228 231 231 231 230 230 229 232 234 234 234 235 236 236 230 225 219 213 211 212 214 215 217 221 226 232 239 246
212 204 201 204 209 216 219 220 220 221 222 224 226 227 227 227 227 227 229 229 228 227 227 226 221 218 211 208 210 211 212 213 218 225 233 241 249 256
210 198 195 198 202 209 213 214 215 215 216 219 222 224 225 225 225 227 226 225 223 220 215 213 210 206 204 207 210 212 214 219 227 235 245 252 258 264
208 197 192 193 198 204 208 209 209 210 214 218 221 222 222 221 222 222 220 217 215 211 207 205 203 203 205 209 212 216 222 231 240 248 256 262 267 271
207 198 192 189 193 198 203 205 206 208 211 214 218 218 217 217 217 215 214 211 209 206 203 202 203 206 208 212 218 226 234 242 249 256 263 268 272 274
205 199 191 188 190 193 197 200 202 205 208 210 213 214 213 213 212 211 210 208 207 205 204 203 205 209 214 219 226 235 244 251 257 262 267 271 274 276
201 197 190 186 188 190 194 197 199 202 205 207 208 209 209 209 208 207 205 205 205 204 204 206 211 215 221 228 235 244 251 258 264 269 273 275 277 278
195 193 188 185 185 188 192 195 197 199 201 203 204 205 206 205 204 203 203 204 205 206 208 212 217 222 229 236 244 252 260 266 270 274 276 278 279 281
183 184 182 181 184 186 189 192 194 196 198 200 201 202 201 201 202 203 204 206 208 210 213 218 224 230 237 246 254 262 267 271 274 276 277 279 281 283
164 174 176 177 180 184 186 187 189 191 194 197 198 198 198 200 201 202 205 208 211 215 220 225 231 237 245 254 261 267 271 273 276 277 279 281 283 286
Height
5760 5762 5764 5765 5767 5768 5769 5770 5769 5767 5764 5762 5761 5759 5758 5759 5760 5762 5765 5767 5770 5773 5775 5777 5780 5784 5787 5789 5791 5793 5795 5797 5798 5800 5802 5804 5806 5809
5750 5752 5754 5756 5758 5759 5761 5761 5762 5761 5759 5756 5754 5753 5752 5753 5754 5756 5759 5762 5765 5768 5770 5773 5775 5778 5780 5782 5784 5786 5788 5789 5791 5793 5795 5796 5799 5801
5739 5742 5744 5747 5749 5750 5752 5753 5754 5754 5753 5751 5749 5747 5746 5747 5748 5750 5753 5756 5759 5762 5765 5767 5769 5771 5773 5775 5777 5779 5781 5782 5784 5786 5788 5790 5792 5794
5726 5730 5734 5737 5740 5742 5743 5745 5746 5747 5747 5745 5743 5741 5740 5741 5742 5744 5747 5750 5753 5756 5759 5761 5763 5765 5767 5769 5770 5772 5774 5776 5778 5779 5781 5783 5784 5786
5712 5717 5721 5725 5729 5732 5734 5736 5738 5739 5740 5739 5738 5736 5734 5734 5735 5738 5740 5744 5747 5750 5752 5755 5757 5759 5760 5762 5764 5766 5767 5769 5771 5773 5774 5776 5778 5780
5697 5703 5708 5713 5718 5722 5725 5727 5730 5731 5732 5732 5732 5730 5729 5728 5729 5731 5734 5738 5741 5744 5746 5748 5750 5752 5754 5756 5757 5759 5761 5763 5765 5766 5768 5770 5771 5773
5681 5688 5694 5700 5705 5710 5714 5718 5721 5723 5725 5725 5725 5724 5724 5724 5724 5726 5729 5732 5734 5737 5740 5742 5744 5746 5747 5749 5751 5753 5755 5756 5758 5760 5761 5763 5764 5766
5664 5672 5679 5687 5693 5698 5703 5708 5712 5715 5717 5718 5719 5719 5718 5719 5720 5722 5724 5726 5729 5732 5733 5735 5738 5740 5742 5744 5745 5747 5749 5751 5752 5754 5755 5757 5758 5760
5646 5656 5664 5673 5680 5686 5692 5697 5702 5706 5709 5711 5712 5713 5713 5714 5715 5717 5719 5721 5723 5725 5727 5729 5731 5733 5736 5738 5740 5742 5744 5746 5747 5749 5750 5752 5754 5755
5628 5639 5649 5658 5667 5674 5681 5687 5692 5697 5700 5703 5705 5706 5707 5708 5709 5711 5713 5715 5717 5719 5722 5723 5725 5727 5730 5732 5735 5737 5739 5741 5743 5745 5746 5748 5750 5751
5609 5622 5633 5644 5654 5662 5669 5676 5682 5687 5691 5695 5698 5700 5701 5702 5704 5706 5708 5710 5712 5714 5716 5718 5720 5722 5724 5727 5729 5732 5734 5736 5738 5740 5742 5744 5746 5747
5593 5606 5618 5630 5640 5649 5658 5665 5672 5678 5683 5687 5690 5693 5695 5697 5698 5701 5703 5704 5706 5708 5710 5713 5715 5717 5719 5722 5725 5728 5730 5732 5735 5737 5739 5740 5742 5744
5578 5590 5603 5616 5627 5637 5646 5654 5661 5668 5674 5679 5683 5686 5689 5691 5693 5695 5697 5699 5701 5703 5705 5707 5710 5712 5715 5718 5721 5724 5727 5729 5731 5733 5735 5737 5739 5740
5567 5578 5591 5604 5615 5625 5635 5644 5652 5659 5666 5671 5676 5680 5682 5685 5687 5689 5691 5694 5696 5699 5701 5703 5706 5708 5711 5714 5718 5721 5724 5726 5728 5730 5732 5734 5735 5736
5557 5568 5580 5593 5603 5614 5624 5634 5643 5651 5658 5664 5669 5672 5676 5679 5681 5684 5686 5689 5692 5694 5697 5699 5702 5705 5708 5712 5715 5718 5721 5723 5725 5727 5729 5730 5731 5732
5549 5558 5570 5582 5593 5605 5615 5625 5634 5642 5650 5656 5661 5665 5669 5673 5676 5679 5682 5684 5687 5690 5693 5696 5699 5702 5706 5709 5712 5715 5718 5720 5722 5724 5725 5726 5726 5727
5541 5550 5561 5573 5584 5596 5607 5617 5626 5635 5642 5649 5654 5659 5663 5667 5671 5674 5677 5680 5683 5687 5690 5693 5696 5699 5703 5706 5709 5712 5714 5716 5718 5719 5720 5720 5720 5720
5535 5544 5554 5566 5577 5589 5600 5610 5620 5628 5635 5642 5648 5653 5657 5661 5665 5669 5673 5676 5680 5683 5687 5690 5693 5696 5700 5703 5706 5708 5710 5712 5713 5714 5714 5714 5714 5713
5529 5538 5548 5560 5572 5583 5594 5605 5614 5622 5629 5636 5642 5647 5652 5656 5661 5665 5669 5672 5676 5679 5683 5687 5690 5693 5696 5699 5701 5703 5705 5706 5707 5707 5707 5707 5706 5705
5525 5534 5545 5556 5568 5579 5590 5600 5608 5616 5624 5630 5637 5642 5647 5652 5656 5661 5665 5669 5672 5676 5680 5683 5687 5690 5692 5695 5697 5698 5699 5700 5700 5700 5699 5698 5697 5695
5524 5533 5543 5555 5566 5576 5586 5596 5604 5612 5619 5626 5632 5637 5643 5648 5652 5656 5661 5665 5669 5673 5676 5679 5682 5685 5687 5690 5691 5692 5693 5692 5692 5691 5690 5689 5687 5685
5524 5533 5544 5555 5566 5576 5585 5594 5602 5609 5616 5622 5628 5633 5639 5644 5649 5653 5657 5662 5666 5669 5672 5675 5678 5680 5682 5683 5684 5685 5685 5684 5683 5682 5681 5679 5677 5675
5528 5537 5547 5557 5567 5577 5585 5593 5600 5607 5613 5619 5625 5630 5636 5641 5646 5650 5654 5658 5662 5665 5668 5671 5673 5675 5676 5677 5677 5677 5677 5676 5675 5673 5672 5669 5667 5665